#timestamp,LO_Frequency,Hit,StdDev 
1507359615.3,286046997.7,N
1507359635.1,286046994.9,N
1507359655.8,286047000.5,N
1507359675.7,286047000.5,N
1507359695.5,286046999.2,N
1507359715.3,286046996.7,N
1507359735.2,286046993.8,N
1507359755.9,286046993.8,N
1507359775.7,286046992.1,N
1507359795.6,286046997.0,N
1507359815.4,286046999.9,N
1507359835.2,286046999.5,N
1507359855.0,286046995.1,N
1507359856.0,286046995.1,N
1507359875.8,286046996.5,N
1507359895.6,286047000.2,N
1507359915.4,286047000.6,N
1507359935.3,286046996.9,N
1507359955.1,286046997.2,N
1507359975.8,286046996.9,N
1507359995.7,286046997.7,N
1507360015.5,286046999.3,N
1507360035.3,286046997.2,N
1507360055.2,286046996.6,N
1507360075.9,286046995.6,N
1507360095.7,286046996.1,N
1507360115.6,286046994.2,N
1507360135.4,286046992.1,Y
1507360155.2,286046996.5,P
1507360175.1,286046997.9,P
1507360176.0,286046997.9,P
1507360195.8,286046999.3,N
1507360215.6,286046997.2,Y
1507360235.5,286047002.2,P
1507360255.3,286047000.1,N
1507360275.1,286046998.5,N
1507360295.9,286047000.4,N
1507360315.7,286046999.9,N
1507360335.5,286047002.2,N
1507360355.4,286047003.9,N
1507360375.2,286047002.5,N
1507360395.0,286047001.4,N
1507360395.9,286047001.4,N
1507360415.7,286047004.0,N
1507360435.6,286047000.5,N
1507360455.4,286046998.8,N
1507360475.2,286046997.7,N
1507360495.1,286046996.6,N
1507360496.0,286046996.6,N
1507360515.8,286047000.1,N
1507360535.6,286047001.4,N
1507360555.5,286047000.3,N
1507360575.3,286047000.9,N
1507360595.1,286047002.7,N
1507360615.9,286047000.9,N
1507360635.7,286047002.6,N
1507360655.5,286047003.8,N
1507360675.4,286047004.7,N
1507360695.2,286047004.5,N
1507360715.0,286047005.5,N
1507360715.9,286047005.5,N
1507360735.7,286047005.3,N
1507360755.6,286047006.4,N
1507360775.4,286047006.7,N
1507360795.2,286047004.1,N
1507360815.1,286047005.4,N
1507360816.0,286047005.4,N
1507360835.8,286047007.2,N
1507360855.6,286047006.2,N
1507360875.5,286047010.8,Y
1507360895.3,286047005.5,P
1507360915.1,286047003.1,N
1507360935.9,286047006.1,P
1507360955.7,286047007.5,Y
1507360975.5,286047004.0,P
1507360995.4,286047000.1,N
1507361015.2,286047002.3,N
1507361035.0,286047000.1,N
1507361035.9,286047000.1,N
1507361055.8,286047000.1,N
1507361075.6,286047004.3,N
1507361095.4,286047007.2,Y
1507361115.3,286047000.0,P
1507361135.1,286047003.4,P
1507361155.8,286047004.4,P
1507361175.7,286047002.8,N
1507361195.5,286047007.0,Y
1507361215.3,286047004.4,P
1507361235.2,286047000.9,N
1507361255.9,286047003.4,N
1507361275.7,286047003.5,N
1507361295.6,286047002.9,N
1507361315.4,286047002.0,N
1507361335.2,286047000.0,N
1507361355.1,286046998.1,N
1507361356.0,286046998.1,N
1507361375.8,286047000.5,N
1507361395.6,286046998.2,N
1507361415.4,286047000.7,N
1507361435.3,286047001.4,N
1507361455.1,286047000.0,N
1507361475.8,286046998.1,N
1507361495.7,286046998.6,N
1507361515.5,286046997.4,N
1507361535.3,286046998.5,N
1507361555.2,286047000.8,N
1507361575.9,286046997.5,N
1507361595.7,286046998.9,N
1507361615.6,286047002.6,N
1507361635.4,286047003.5,N
1507361655.2,286047001.1,N
1507361675.0,286047000.6,N
1507361676.0,286047000.6,N
1507361695.8,286046999.4,N
1507361715.6,286046997.8,N
1507361735.4,286046997.6,N
1507361755.3,286046997.9,N
1507361775.1,286046999.6,N
1507361795.8,286046996.8,N
1507361815.7,286046997.3,N
1507361835.5,286046994.5,N
1507361855.3,286046992.2,Y
1507361875.2,286046994.1,P
1507361895.9,286046996.0,N
1507361915.7,286046999.1,N
1507361935.6,286046995.8,N
1507361955.4,286046992.1,Y
1507361975.2,286046998.2,P
1507361995.1,286046999.6,N
1507361996.0,286046999.6,N
1507362015.8,286046997.5,N
1507362035.6,286046999.4,N
1507362055.5,286046995.0,Y
1507362075.3,286046997.1,P
1507362095.1,286046999.2,N
1507362115.9,286046998.7,N
1507362135.7,286046998.1,N
1507362155.5,286046999.8,N
1507362175.4,286046998.3,N
1507362195.2,286046999.1,N
1507362215.0,286046999.9,N
1507362215.9,286046999.9,N
1507362235.8,286046999.5,N
1507362255.6,286047000.2,N
1507362275.4,286047003.7,Y
1507362295.3,286047005.1,P
1507362315.1,286047003.7,N
1507362316.0,286047003.7,N
1507362335.8,286047005.2,N
1507362355.7,286047005.6,N
1507362375.5,286047002.6,N
1507362395.3,286047004.4,N
1507362415.1,286047001.5,N
1507362435.9,286047002.0,N
1507362455.7,286046999.2,N
1507362475.5,286047002.4,N
1507362495.4,286046998.4,N
1507362515.2,286046996.6,N
1507362535.0,286047000.7,N
1507362535.9,286047000.7,N
1507362555.8,286046998.4,N
1507362575.6,286047001.2,N
1507362595.4,286047000.8,N
1507362615.3,286046999.3,N
1507362635.1,286046994.9,N
1507362636.0,286046994.9,N
1507362655.8,286046997.4,N
1507362675.7,286046999.2,N
1507362695.5,286046998.7,N
1507362715.3,286047000.8,N
1507362735.1,286046997.3,N
1507362755.9,286046997.3,N
1507362775.7,286046995.6,N
1507362795.5,286046996.2,N
1507362815.4,286046999.4,N
1507362835.2,286046998.5,N
1507362855.0,286047000.4,N
1507362855.9,286047000.4,N
1507362875.8,286046995.3,N
1507362895.6,286046995.2,N
1507362915.4,286046993.6,N
1507362935.3,286046996.4,N
1507362955.1,286046992.1,Y
1507362975.8,286046993.9,P
1507362995.7,286046996.6,N
1507363015.5,286046993.7,P
1507363035.3,286046990.7,Y
1507363055.2,286046995.2,P
1507363075.9,286046994.0,P
1507363095.7,286046994.5,P
1507363115.6,286046990.1,Y
1507363135.4,286046997.0,P
1507363155.2,286047001.1,N
1507363175.1,286047000.0,N
1507363176.0,286047000.0,N
1507363195.8,286047003.7,N
